Weather History for Antalya, Turkey

Change the Weather History Date:

Monday, November 12, 2012

  Actual Average Record
Temperature  
Mean Temperature 66 °F -  
Max Temperature 76 °F 67 °F 80 °F (2001)
Min Temperature 57 °F 49 °F 42 °F (2003)
Cooling Degree Days 2    
Growing Degree Days 16 (Base 50)    
Moisture  
Dew Point 43 °F    
Average Humidity 43    
Maximum Humidity 55    
Minimum Humidity 21    
Precipitation  
Precipitation 0.00 in 0.23 in - ()
Sea Level Pressure  
Sea Level Pressure 30.05 in    
Wind  
Wind Speed 10 mph ()    
Max Wind Speed 16 mph    
Max Gust Speed -    
Visibility 6.6 miles    
Events      
Averages and records for this station are not official NWS values.
T = Trace of Precipitation, MM = Missing Value Source: Averaged Metar Reports

Daily Weather History Graph

Daily Weather History Graph

Search for Another Location

Airport:

Trip Planner

Search our weather history database for the weather conditions in past years. The results will help you decide how hot, cold, wet, or windy it might be!

Date:

Astronomy

Nov. 12, 2012 Rise Set
Actual Time 6:32 AM EET 4:49 PM EET
Civil Twilight 6:04 AM EET 5:16 PM EET
Nautical Twilight 5:33 AM EET 5:47 PM EET
Astronomical Twilight 5:02 AM EET 6:18 PM EET
Moon 4:35 AM EET (11/12) 3:38 PM EET (11/12)
Length of Visible Light 11h 12m
Length of Day
10h 17m
Waning Crescent, 3% of the Moon is Illuminated
Nov 12
Waning Crescent
Nov 14
New
Nov 20
First Quarter
Nov 28
Full
Dec 6
Last Quarter

Hourly Weather History & Observations

Time (EET) Temp. Dew Point Humidity Pressure Visibility Wind Dir Wind Speed Gust Speed Precip Events Conditions
12:20 AM 59.0 °F 39.2 °F 48% 30.04 in - WNW 11.5 mph - N/A   Clear
12:50 AM 59.0 °F 39.2 °F 48% 30.04 in - NW 11.5 mph - N/A   Clear
1:20 AM 60.8 °F 39.2 °F 45% 30.04 in - NW 15.0 mph - N/A   Clear
1:50 AM 60.8 °F 39.2 °F 45% 30.04 in - NW 11.5 mph - N/A   Clear
2:00 AM 61 °F 38 °F 31% 30.04 in 6 mi NW 11.5 mph - -  
2:20 AM 59.0 °F 39.2 °F 48% 30.04 in - WNW 6.9 mph - N/A   Clear
2:50 AM 59.0 °F 39.2 °F 48% 30.04 in - WNW 9.2 mph - N/A   Clear
3:20 AM 59.0 °F 39.2 °F 48% 30.04 in - WNW 11.5 mph - N/A   Clear
3:50 AM 59.0 °F 39.2 °F 48% 30.04 in - NW 12.7 mph - N/A   Clear
4:20 AM 60.8 °F 39.2 °F 45% 30.04 in - NW 16.1 mph - N/A   Clear
4:50 AM 59.0 °F 39.2 °F 48% 30.06 in - NW 12.7 mph - N/A   Clear
5:20 AM 59.0 °F 39.2 °F 48% 30.06 in - NW 13.8 mph - N/A   Clear
5:50 AM 60.8 °F 41.0 °F 48% 30.06 in - NW 12.7 mph - N/A   Clear
6:20 AM 60.8 °F 39.2 °F 45% 30.06 in - NW 12.7 mph - N/A   Clear
6:50 AM 59.0 °F 41.0 °F 51% 30.06 in - NW 12.7 mph - N/A   Clear
7:20 AM 59.0 °F 41.0 °F 51% 30.06 in - NW 11.5 mph - N/A   Clear
7:50 AM 60.8 °F 42.8 °F 52% 30.09 in - WNW 9.2 mph - N/A   Clear
8:00 AM 61 °F 42 °F 39% 30.08 in 6 mi WNW 9.2 mph - -  
8:20 AM 64.4 °F 42.8 °F 45% 30.09 in - NNW 6.9 mph - N/A   Clear
8:50 AM 66.2 °F 42.8 °F 43% 30.09 in - NNW 10.4 mph - N/A   Clear
9:20 AM 68.0 °F 42.8 °F 40% 30.06 in - NNW 13.8 mph - N/A   Clear
9:50 AM 69.8 °F 44.6 °F 40% 30.06 in - NNW 16.1 mph - N/A   Clear
10:20 AM 71.6 °F 42.8 °F 35% 30.06 in - NNW 15.0 mph - N/A   Clear
10:50 AM 71.6 °F 44.6 °F 38% 30.06 in - NNW 12.7 mph - N/A   Clear
11:20 AM 73.4 °F 44.6 °F 36% 30.06 in - North 16.1 mph - N/A   Clear
11:50 AM 75.2 °F 42.8 °F 31% 30.04 in - NNW 13.8 mph - N/A   Clear
12:20 PM 75.2 °F 42.8 °F 31% 30.04 in - NNW 13.8 mph - N/A   Clear
12:50 PM 75.2 °F 42.8 °F 31% 30.01 in 6.2 mi NNW 12.7 mph - N/A   Partly Cloudy
1:20 PM 75.2 °F 42.8 °F 31% 30.01 in - North 11.5 mph - N/A   Clear
1:50 PM 75.2 °F 42.8 °F 31% 30.01 in 6.2 mi North 10.4 mph - N/A   Partly Cloudy
2:00 PM 76 °F 43 °F 21% 30.00 in 12 mi North 10.4 mph - -   Scattered Clouds
2:20 PM 77.0 °F 44.6 °F 32% 30.01 in 6.2 mi North 11.5 mph - N/A   Partly Cloudy
2:50 PM 77.0 °F 42.8 °F 29% 30.01 in 6.2 mi North 9.2 mph - N/A   Partly Cloudy
3:20 PM 75.2 °F 42.8 °F 31% 30.01 in 6.2 mi North 9.2 mph - N/A   Partly Cloudy
3:50 PM 75.2 °F 44.6 °F 34% 30.01 in 6.2 mi North 8.1 mph - N/A   Partly Cloudy
4:20 PM 71.6 °F 46.4 °F 41% 30.01 in 6.2 mi North 11.5 mph - N/A   Partly Cloudy
4:50 PM 69.8 °F 46.4 °F 43% 30.04 in 6.2 mi ENE 5.8 mph - N/A   Partly Cloudy
5:20 PM 68.0 °F 44.6 °F 43% 30.04 in 6.2 mi NE 5.8 mph - N/A   Partly Cloudy
5:50 PM 68.0 °F 44.6 °F 43% 30.04 in 6.2 mi North 6.9 mph - N/A   Partly Cloudy
6:20 PM 68.0 °F 44.6 °F 43% 30.06 in - NNE 5.8 mph - N/A   Clear
6:50 PM 64.4 °F 46.4 °F 52% 30.06 in - North 4.6 mph - N/A   Clear
7:20 PM 62.6 °F 46.4 °F 55% 30.06 in - North 4.6 mph - N/A   Clear
7:50 PM 60.8 °F 44.6 °F 55% 30.09 in - North 6.9 mph - N/A   Clear
8:00 PM 62 °F 46 °F 44% 30.07 in 6 mi North 6.9 mph - -  
8:20 PM 62.6 °F 44.6 °F 52% 30.09 in - North 10.4 mph - N/A   Clear
8:50 PM 64.4 °F 44.6 °F 49% 30.09 in - NNW 6.9 mph - N/A   Clear
9:20 PM 66.2 °F 44.6 °F 46% 30.09 in - NW 9.2 mph - N/A   Clear
9:50 PM 62.6 °F 44.6 °F 52% 30.09 in - North 5.8 mph - N/A   Clear
10:20 PM 60.8 °F 44.6 °F 55% 30.09 in - NNW 9.2 mph - N/A   Clear
10:50 PM 62.6 °F 42.8 °F 48% 30.09 in - NW 9.2 mph - N/A   Clear
11:20 PM 60.8 °F 42.8 °F 52% 30.09 in - NW 6.9 mph - N/A   Clear
11:50 PM 62.6 °F 42.8 °F 48% 30.06 in - NNW 12.7 mph - N/A   Clear